Retour au catalogue

STARLINK-4196

ActifCommunicationsVLEO
NORAD 52859·PAYLOAD·🇺🇸 United States

Lancé Jun 17, 2022 depuis Cape Canaveral Space Force Station

Loading…

Prochains Passages (prochaines 24 heures)

TLE

FraisSource: CelesTrak SupGP

Époque: Sep 14, 2026, 20:42 UTC

1 52859C 22062AF  26257.86298611  .00028555  00000+0  86654-3 0  2577
2 52859  53.1579 244.0539 0001239  87.2467 134.3925 15.33532422    15

Suivez STARLINK-4196 en temps réel avec AllMySat

Download on the App Store